Regional Weather Roundup
Issued by NWS

Home | Current Version | Previous Version | Graphics & Text | Print | Product List | Glossary On
Versions: 1 2 3 4 5 6 7 8 9 10 11 12 13 14 15 16 17 18 19 20 21 22 23 24 25 26 27 28 29 30 31 32 33 34 35 36 37 38 39 40 41 42 43 44 45 46 47 48 49 50
220
ASUS43 KMPX 301101
RWRMN
WEATHER ROUNDUP FOR MINNESOTA
NATIONAL WEATHER SERVICE TWIN CITIES/CHANHASSEN MN
600 AM CDT FRI SEP 30 2016


NOTE: "FAIR" INDICATES FEW OR NO CLOUDS BELOW 12,000 FEET WITH NO
SIGNIFICANT WEATHER AND/OR OBSTRUCTIONS TO VISIBILITY. N/A MEANS
CURRENT SKY AND/OR WEATHER CONDITIONS ARE NOT AVAILABLE.

MNZ060>063-068>070-301200-
   Twin Cities Metro

CITY           SKY/WX    TMP DP  RH WIND       PRES   REMARKS
TWIN CITIES    CLEAR     50  48  93 N6        30.38R
ST PAUL        CLEAR     49  48  97 NW5       30.39R
CRYSTAL        FOG       49  47  93 NE3       30.38R VSB 1/4
BLAINE         FOG       48  48 100 NE5       30.39S VSB 1/4
LAKEVILLE      FOG       41  41 100 CALM      30.37S VSB 1/4
EDEN PRAIRIE   CLEAR     51  49  92 NE5       30.37R
LAKEVILLE      FOG       41  41 100 CALM      30.37S VSB 1/4
SOUTH ST PAUL  CLEAR     51  50  97 CALM      30.38R
LAKE ELMO      FAIR      48  48 100 NE3       30.39S FOG
$$
MNZ001>005-007-008-013>017-022>024-027-028-301200-
   Northwest Minnesota

CITY           SKY/WX    TMP DP  RH WIND       PRES   REMARKS
BEMIDJI        FOG       43  43 100 CALM      30.40S VSB 3/4
HALLOCK        CLEAR     48  46  93 SE10      30.33F
ROSEAU         CLEAR     46  43  87 SE3       30.38F HAZE
WARROAD        CLOUDY    50  46  87 SE5       30.40S
THIEF RVR FALL CLEAR     45  43  93 SE9       30.37F
CROOKSTON      CLEAR     46  46 100 SE9       30.35S
FOSSTON        CLEAR     45  43  93 SE5       30.37F
DETROIT LAKES  CLEAR     46  46 100 SE8       30.37F
MOORHEAD       CLEAR     48  46  93 SE6       30.34F
PARK RAPIDS    FOG       47  45  93 CALM      30.39S VSB 1/4
MAHNOMEN       FAIR      47  45  95 SE5       30.36F
$$
MNZ006-009>011-018-025>026-301200-
   North Central Minnesota

CITY           SKY/WX    TMP DP  RH WIND       PRES   REMARKS
BAUDETTE       CLOUDY    51  47  86 SE6       30.41S
FLAG ISLAND    CLOUDY    55  48  76 SE12      30.39S
INTL FALLS     CLEAR     44  43  96 CALM      30.43S
WASKISH        CLEAR     45  43  93 E6        30.41S
BIG FORK       FOG       46  46 100 S5        30.43R VSB 1/2
GRAND RAPIDS   CLOUDY    49  49 100 SE6       30.44S FOG
ORR            CLOUDY    46  45  93 CALM      30.42S FOG
COOK           CLOUDY    46  46 100 CALM      30.45S FOG
WALKER         FOG       46  46  99 SE5       30.40S VSB 1/2
$$
MNZ012-019>021-037-301200-
   Northeast Minnesota

CITY           SKY/WX    TMP DP  RH WIND       PRES   REMARKS
DULUTH         CLOUDY    51  50  96 E9        30.44R
ELY            CLOUDY    48  46  93 CALM      30.45S
HIBBING        CLOUDY    48  48 100 SE6       30.44R FOG
EVELETH        CLOUDY    50  50  97 SE5       30.45S
DULUTH HARBOR  CLOUDY    55  54  94 NE15      30.46R
TWO HARBORS    CLOUDY    54  48  82 E5        30.44S
SILVER BAY     CLOUDY    54  52  94 E3        30.45R
GRAND MARAIS     N/A     50  49  96 NE3       30.46S
G MARAIS ARPRT FOG       41  37  87 NE5       30.47S VSB 1/4
$$
MNZ029>031-032-039>041-046>048-054>057-064-301200-
   West Central Minnesota

CITY           SKY/WX    TMP DP  RH WIND       PRES   REMARKS
FERGUS FALLS   CLEAR     50  50 100 SE7       30.37F
MORRIS         CLEAR     45  43  93 E8        30.34F FOG
ALEXANDRIA     FOG       47  47 100 SE8       30.38S VSB 1/4
ELBOW LAKE     FAIR      47  47 100 SE8       30.36F
WADENA         FOG       43  41  93 CALM      30.39R VSB 1/2
GLENWOOD       FOG       46  45  93 E3        30.37F VSB<1/4
BENSON         CLEAR     46  45  93 SE3       30.36S
ORTONVILLE     CLEAR     45  43  93 CALM      30.34F FOG
MADISON        FOG       43  43 100 E3        30.34S VSB 1/4
WILLMAR        FOG       48  48 100 CALM      30.38S VSB 1/2
$$
MNZ033>034-036-042>043-049>051-058-059-301200-
   Central Minnesota

CITY           SKY/WX    TMP DP  RH WIND       PRES   REMARKS
ST CLOUD       FOG       49  49 100 E5        30.39S VSB 1/2
SAUK CENTRE    FOG       47  47 100 E5        30.39S VSB 1/4
PAYNESVILLE    FOG       49  50 100 NE3       30.39R VSB 1/4
AITKIN         CLOUDY    52  46  82 SE7       30.41S
PINE RIVER     FOG       50  50 100 CALM      30.43S VSB 3/4
BRAINERD       CLOUDY    51  50  96 VRB5      30.41S
STAPLES        FOG       46  45  93 E3        30.39S VSB 1/4
LONG PRAIRIE   SNOW      45  45 100 NE5       30.39S VSB 1/4
LITTLE FALLS   FOG       46  46 100 CALM      30.40S VSB 1/2
LITCHFIELD     DRZL/FOG  48  48 100 E5        30.38S VSB 1/4
BUFFALO        FOG       49  48  95 NE5       30.40R VSB 1/2
MAPLE LAKE     FOG       50  50 100 NE3       30.40R VSB 1/4
HUTCHINSON     FOG       49  49 100 NE5       30.38S VSB 3/4
$$
MNZ037-044-045-052-053-301200-
   East Central Minnesota

CITY           SKY/WX    TMP DP  RH WIND       PRES   REMARKS
PRINCETON      FOG       52  52 100 NE6       30.40S VSB 3/4
MORA           CLOUDY    50  50 100 E3        30.43S
CAMBRIDGE      CLOUDY    54  52  94 NE5       30.39S FOG
MOOSE LAKE     CLOUDY    50  46  87 CALM      30.41S
HINCKLEY       CLOUDY    52  50  93 E3        30.43R
CLOQUET        CLOUDY    52  48  87 E5        30.44R
MCGREGOR       CLOUDY    50  48  93 E7        30.43S
$$
MNZ071>073-080-081-089-090-097-098-301200-
   Southwest Minnesota

CITY           SKY/WX    TMP DP  RH WIND       PRES   REMARKS
MONTEVIDEO     CLEAR     45  45 100 SE5       30.37S
GRANITE FALLS  CLEAR     46  46  99 E5        30.37S
CANBY          CLEAR     41  40  97 CALM      30.35F
MARSHALL       CLEAR     42  40  92 SE3       30.35F
REDWOOD FALLS  CLEAR     46  44  93 NE5       30.36S
OLIVIA         CLEAR     43  41  93 NE3       30.36R FOG
PIPESTONE      CLEAR     46  45  93 SE6       30.33F
WINDOM         CLEAR     43  43 100 W3        30.35S FOG
WORTHINGTON    CLEAR     42  41  96 N3        30.35S
JACKSON        CLEAR     41  39  93 CALM      30.35R FOG
TRACY          CLEAR     46  45  98 CALM      30.35S FOG
$$
MNZ065>067-074>077-082>085-091>093-301200-
   South Central Minnesota

CITY           SKY/WX    TMP DP  RH WIND       PRES   REMARKS
MANKATO        CLEAR     52  50  93 E6        30.36R
ST JAMES       PTCLDY    43  43 100 CALM      30.36S FOG
FAIRMONT       FOG       43  43 100 CALM      30.35S VSB 1/2
GLENCOE        FOG       48  48 100 CALM      30.37R VSB 1/4
FARIBAULT      FOG       45  45 100 N3        30.36S VSB 1/4
OWATONNA       CLEAR     50  46  87 E3        30.35F
WASECA         CLEAR     52  50  93 NE6       30.36S
ALBERT LEA     CLEAR     48  48 100 CALM      30.35S
$$
MNZ078>079-086>088-094>096-301200-
   Southeast Minnesota

CITY           SKY/WX    TMP DP  RH WIND       PRES   REMARKS
ROCHESTER      CLEAR     49  48  97 N6        30.35S
RED WING       CLEAR     50  48  93 CALM      30.36S
STANTON        FOG       43  42  96 CALM      30.36S VSB 1/4
DODGE CENTER   PTCLDY    48  46  93 NE5       30.35S FOG
WINONA         CLEAR     50  48  93 CALM      30.34F
AUSTIN         CLEAR     46  46 100 NE3       30.34S
PRESTON        CLEAR     49  47  92 N7        30.33F
$$
ABBREVIATIONS USED IN REMARKS
   TC - TEMPERATURES IN CELSIUS
  WCI - WIND CHILL INDEX
   HX - HEAT INDEX
  VSB - VISIBILITY
$$




USA.gov is the U.S. government's official web portal to all federal, state and local government web resources and services.